Regional Weather Roundup
Issued by NWS Charleston, SC

Current Version | Previous Version | Text Only | Print | Product List | Glossary Off
Versions: 1 2 3 4 5 6 7 8 9 10 11 12 13 14 15 16 17 18 19 20 21 22 23 24 25 26 27 28 29 30 31 32 33 34 35 36 37 38 39 40 41 42 43 44 45 46 47 48 49 50

508
ASUS42 KCHS 200427
RWRCHS

REGIONAL WEATHER ROUNDUP
NATIONAL WEATHER SERVICE CHARLESTON SC
1100 PM EST THU JAN 19 2017

NOTE: "FAIR" INDICATES FEW OR NO CLOUDS BELOW 12,000 FEET WITH NO
SIGNIFICANT WEATHER AND/OR OBSTRUCTIONS TO VISIBILITY.

NOT ALL STATIONS ARE QUALITY CONTROLLED. USE DATA WITH CAUTION...
ESPECIALLY DEWPOINT OBSERVATIONS.

SCZ027-030-031-034>040-042>050-200500-
...SOUTHEAST SOUTH CAROLINA...

CITY           SKY/WX    TMP DP  RH WIND       PRES   REMARKS
N CHARLESTON   MOCLDY    56  52  86 CALM      29.98F
WATERFRONT PRK   N/A     58  56  92 VRB3      29.98R
MOUNT PLEASANT LGT RAIN  55  55 100 CALM      29.98F
JOHNS ISLAND   FAIR      57  55  94 CALM      29.98S
PINOPOLIS        N/A     55  50  82 CALM      29.90R
MONCKS CORNER  FAIR      54  48  82 CALM      29.98F
SUMMERVILLE    FAIR      55  54  94 CALM      29.99S
BEAUFORT MCAS  CLOUDY    59  56  89 E3        29.97S
BEAUFORT ARPT  FAIR      55  55 100 E5        29.97S
HILTON HEAD IS CLOUDY    57  57 100 CALM      29.98S
WALTERBORO     CLOUDY    55  52  88 SE3       29.99R
ALLENDALE      FAIR      59  57  94 CALM      29.96S

...SOUTHERN MIDLANDS AND PEE DEE...

CITY           SKY/WX    TMP DP  RH WIND       PRES   REMARKS
GEORGETOWN     FAIR      50  48  93 CALM      30.00F
KINGSTREE      FAIR      52  46  82 CALM      29.99F
ORANGEBURG     CLOUDY    58  52  80 SE3       29.98R
BARNWELL       FAIR      61  59  94 SE6       29.97S
AIKEN          FAIR      55  50  82 SE5       29.99F
MANNING        FAIR      52  43  71 CALM      29.98S
COLUMBIA       CLOUDY    58  46  64 E3        29.96S
SUMTER         MOCLDY    55  47  74 CALM      29.96S
FLORENCE       MOCLDY    52  46  80 SE5       29.99F
MYRTLE BEACH   PTCLDY    55  50  82 E5        30.01R
N MYRTLE BEACH PTCLDY    54  50  86 E3        30.00R

$$

GAZ063-065-086>088-099>101-113>116-118-119-134>141-150-200500-
...SOUTHEAST GEORGIA...

CITY           SKY/WX    TMP DP  RH WIND       PRES   REMARKS
SAVANNAH ARPT  FOG       58  56  93 SE6       29.98R VSB 1/4
HUNTER AAF     FOG       57  57 100 E5        29.95S VSB 1
FORT STEWART   CLOUDY    57  54  91 CALM      29.95R
STATESBORO     CLOUDY    60  57  91 CALM      29.96S
SYLVANIA       CLOUDY   N/A N/A N/A CALM      29.97S
CLAXTON        FAIR     N/A N/A N/A CALM      29.97S

...CSRA...CENTRAL AND FAR SOUTHEAST GEORGIA...

CITY           SKY/WX    TMP DP  RH WIND       PRES   REMARKS
THOMSON        CLOUDY    64  55  72 SE5       29.97F
AUGUSTA-BUSH   CLOUDY    62  52  69 SE6       29.95R
AUGUSTA-DANIEL CLOUDY    63  50  62 SE6       29.96R
SWAINSBORO     MOCLDY    63  59  88 SE6       29.96R
VIDALIA        LGT RAIN  64  63  94 S3        29.96R
EASTMAN        FAIR      67  55  66 S5        29.97R
HAZLEHURST     FAIR      66  64  93 S3        29.95R
ALMA           CLOUDY    64  62  93 SE5       29.95S
WAYCROSS       MOCLDY    67  67 100 SW3       29.97R
JESUP          MOCLDY    61  57  88 CALM      29.97S
BAXLEY         FAIR      66  66 100 S5        29.96S
BRUNSWICK      PTCLDY    59  59 100 CALM      29.97F
SAINT SIMONS   MOCLDY    64  60  87 S3        29.96S

$$

SCZ027-028-034-036>038-045-046-048>050-GAZ119-141-200500-
...LAKE AND SUPPLEMENTAL COASTAL OBSERVATIONS...

STATION/POSITION TIME  TEMP    WIND        PRES    WAVE   SWELL
                       AIR SEA DIR/SP/G            HT/PER HT/PER/DIR
                 (UTC) (F)     (DEG/KT/KT) (MB)    (FT/S) (FT/S/D)
WINYAH BAY       0345   55      50/  3     1015.0S
LAKE MURRAY      0350   60     110/  4/  6 1014.2S
ACE BASIN NERRS  0345   57        CALM     1015.0S
FORT PULASKI     0400   58 58  120/  2/  3 1015.0
SAPELO ISLAND    0400   59     120/  1     1015.0

$$

ANZ835-935-AMZ111-154-330-350-352-354-370-450-454-472-200500-
...C-MAN AND BUOY OBSERVATIONS...

STATION/POSITION TIME  TEMP    WIND        PRES    WAVE   SWELL
                       AIR SEA DIR/SP/G            HT/PER HT/PER/DIR
                 (UTC) (F)     (DEG/KT/KT) (MB)    (FT/S) (FT/S/D)
BUOY 41004       0350   69 71   80/ 12/ 14 1014.2R   3/10   2/ 70/10
BUOY 41008       0350   61 60  100/  4/  4 1014.7R   1/10   2/ 60/10
FOLLY BEACH CMAN 0400   57      50/  6/  7 1015.6F
CAPERS NEARSHORE 0308   57 55   80/  6/ 10 1015.0R
FRIPP NEARSHORE  0408   58 57   60/  4/  6 1014.7S


STATION/POSITION TIME  TEMP    WIND        PRES    WAVE   SWELL
                       AIR SEA DIR/SP/G            HT/PER HT/PER/DIR
                 (UTC) (F)     (DEG/KT/KT) (MB)    (FT/S) (FT/S/D)
5E ST. MARYS GA  0400      64                N/A     1/ 9
FRYING PAN BUOY  0410   65 70   90/ 10/ 12 1015.4
BUOY 41025       0350   55 76   20/  4/  8 1017.3R   4/10   3/ 50/10
CAPE LOOKOUT NC  0400   54      20/  2/  3 1016.0F
BUOY 41002       0350   67 71   20/  2/  6 1016.3R   6/ 9   7/ 30/ 9
BUOY 41010       NOT AVBL
ST AUGUSTINE FL  0400   63 64  240/  4/  5 1015.7R


$$




USA.gov is the U.S. government's official web portal to all federal, state and local government web resources and services.